Location: Asheville, NC
(35.6000°N, 82.5500°W)
Time: 19:47:37
(UTC-04:00)

Envisat - Pass Details

Date: 14 March 2018
Orbit: 764 x 766 km, 98.2° (Epoch: 23 June)

Event Time Altitude Azimuth Distance (km) Brightness Sun altitude
Rises 20:12:37 0° 140° (SE) 3,214 5.8 -8.1°
Reaches altitude 10° 20:15:09 10° 130° (SE) 2,291 5.0 -8.6°
Maximum altitude 20:19:30 30° 70° (ENE) 1,341 3.8 -9.5°
Drops below altitude 10° 20:23:53 10° 10° (N) 2,303 5.4 -10.4°
Sets 20:26:25 0° 360° (N) 3,234 6.3 -10.9°
